| time (UTC) | temp F | wind direction | speed MPH | gust MPH | rain 1hr in | rain 24hr in | rain mn in | humidity % | barometer mb |
| 20260506133302 | 79 | 120 | 6.0 | 0.0 | 0.00 | 0.00 | 0.00 | 34 | 1014.0 |
| 20260506131802 | 77 | 90 | 7.0 | 0.0 | 0.00 | 0.00 | 0.00 | 39 | 1014.0 |
| 20260506130311 | 77 | 90 | 7.0 | 0.0 | 0.00 | 0.00 | 0.00 | 39 | 1014.0 |
| 20260506124802 | 77 | 5.0 | 0.0 | 0.00 | 0.00 | 0.00 | 30 | 1014.0 | |
| 20260506123302 | 77 | 5.0 | 0.0 | 0.00 | 0.00 | 0.00 | 30 | 1014.0 | |
| 20260506121802 | 75 | 3.0 | 0.0 | 0.00 | 0.00 | 0.00 | 34 | 1014.0 | |
| 20260506120302 | 75 | 3.0 | 0.0 | 0.00 | 0.00 | 0.00 | 34 | 1014.0 | |
| 20260506114801 | 77 | 100 | 8.0 | 0.0 | 0.00 | 0.00 | 0.00 | 36 | 1015.0 |
| 20260506113302 | 77 | 100 | 8.0 | 0.0 | 0.00 | 0.00 | 0.00 | 36 | 1015.0 |
| 20260506111802 | 75 | 150 | 8.0 | 0.0 | 0.00 | 0.00 | 0.00 | 36 | 1015.0 |
| 20260506110302 | 75 | 150 | 8.0 | 0.0 | 0.00 | 0.00 | 0.00 | 36 | 1015.0 |
| 20260506104802 | 75 | 130 | 9.0 | 0.0 | 0.00 | 0.00 | 0.00 | 36 | 1015.0 |
| 20260506103302 | 75 | 130 | 9.0 | 0.0 | 0.00 | 0.00 | 0.00 | 36 | 1015.0 |
| 20260506101802 | 75 | 160 | 8.0 | 0.0 | 0.00 | 0.00 | 0.00 | 31 | 1015.0 |
| 20260506100302 | 75 | 160 | 8.0 | 0.0 | 0.00 | 0.00 | 0.00 | 31 | 1015.0 |
| 20260506094802 | 75 | 110 | 5.0 | 0.0 | 0.00 | 0.00 | 0.00 | 34 | 1015.0 |
| 20260506093302 | 75 | 110 | 5.0 | 0.0 | 0.00 | 0.00 | 0.00 | 34 | 1015.0 |
| 20260506091802 | 73 | 180 | 5.0 | 0.0 | 0.00 | 0.00 | 0.00 | 38 | 1015.0 |
| 20260506090302 | 73 | 180 | 5.0 | 0.0 | 0.00 | 0.00 | 0.00 | 38 | 1015.0 |
| 20260506084802 | 72 | 110 | 7.0 | 0.0 | 0.00 | 0.00 | 0.00 | 38 | 1015.0 |
| 20260506083302 | 72 | 110 | 7.0 | 0.0 | 0.00 | 0.00 | 0.00 | 38 | 1015.0 |
| 20260506081801 | 70 | 110 | 6.0 | 0.0 | 0.00 | 0.00 | 0.00 | 46 | 1015.0 |
| 20260506080302 | 70 | 110 | 6.0 | 0.0 | 0.00 | 0.00 | 0.00 | 46 | 1015.0 |
| 20260506073302 | 66 | 80 | 5.0 | 0.0 | 0.00 | 0.00 | 0.00 | 52 | 1015.0 |
| 20260506071801 | 63 | 3.0 | 0.0 | 0.00 | 0.00 | 0.00 | 59 | 1015.0 | |
| 20260506070301 | 63 | 3.0 | 0.0 | 0.00 | 0.00 | 0.00 | 59 | 1015.0 | |
| 20260506061802 | 57 | 70 | 5.0 | 0.0 | 0.00 | 0.00 | 0.00 | 67 | 1015.0 |
| 20260506060303 | 57 | 70 | 5.0 | 0.0 | 0.00 | 0.00 | 0.00 | 67 | 1015.0 |
| 20260506050316 | 52 | 40 | 5.0 | 0.0 | 0.00 | 0.00 | 0.00 | 77 | 1015.0 |
| 20260506044817 | 50 | 40 | 6.0 | 0.0 | 0.00 | 0.00 | 0.00 | 82 | 1015.0 |
| 20260506043306 | 50 | 40 | 6.0 | 0.0 | 0.00 | 0.00 | 0.00 | 82 | 1015.0 |
| 20260506041802 | 48 | 50 | 6.0 | 0.0 | 0.00 | 0.00 | 0.00 | 87 | 1015.0 |
| 20260506040302 | 48 | 50 | 6.0 | 0.0 | 0.00 | 0.00 | 0.00 | 87 | 1015.0 |
| 20260506034802 | 48 | 30 | 6.0 | 0.0 | 0.00 | 0.00 | 0.00 | 87 | 1015.0 |
| 20260506033302 | 48 | 30 | 6.0 | 0.0 | 0.00 | 0.00 | 0.00 | 87 | 1015.0 |
| 20260506031802 | 48 | 30 | 5.0 | 0.0 | 0.00 | 0.00 | 0.00 | 87 | 1015.0 |
| 20260506030301 | 48 | 30 | 5.0 | 0.0 | 0.00 | 0.00 | 0.00 | 87 | 1015.0 |
| 20260506024802 | 48 | 50 | 8.0 | 0.0 | 0.00 | 0.00 | 0.00 | 87 | 1014.0 |
| 20260506023302 | 48 | 50 | 8.0 | 0.0 | 0.00 | 0.00 | 0.00 | 87 | 1014.0 |
| 20260506021802 | 48 | 60 | 7.0 | 0.0 | 0.00 | 0.00 | 0.00 | 87 | 1014.0 |
| 20260506020302 | 48 | 60 | 7.0 | 0.0 | 0.00 | 0.00 | 0.00 | 87 | 1014.0 |
| 20260506014801 | 50 | 40 | 6.0 | 0.0 | 0.00 | 0.00 | 0.00 | 88 | 1014.0 |
| 20260506013302 | 50 | 40 | 6.0 | 0.0 | 0.00 | 0.00 | 0.00 | 88 | 1014.0 |
| 20260506011802 | 50 | 70 | 6.0 | 0.0 | 0.00 | 0.00 | 0.00 | 88 | 1014.0 |
| 20260506010302 | 50 | 70 | 6.0 | 0.0 | 0.00 | 0.00 | 0.00 | 88 | 1014.0 |
| 20260506004802 | 52 | 70 | 6.0 | 0.0 | 0.00 | 0.00 | 0.00 | 82 | 1014.0 |
| 20260506003415 | 52 | 70 | 7.0 | 0.0 | 0.00 | 0.00 | 0.00 | 88 | 1014.0 |
| 20260506001802 | 52 | 70 | 7.0 | 0.0 | 0.00 | 0.00 | 0.00 | 88 | 1014.0 |
| 20260506000302 | 52 | 70 | 7.0 | 0.0 | 0.00 | 0.00 | 0.00 | 88 | 1014.0 |
| 20260505234802 | 54 | 60 | 8.0 | 0.0 | 0.00 | 0.00 | 0.00 | 82 | 1014.0 |
| 20260505233301 | 54 | 60 | 8.0 | 0.0 | 0.00 | 0.00 | 0.00 | 82 | 1014.0 |
| 20260505231802 | 55 | 50 | 5.0 | 0.0 | 0.00 | 0.00 | 0.00 | 82 | 1014.0 |
| 20260505230302 | 55 | 50 | 5.0 | 0.0 | 0.00 | 0.00 | 0.00 | 82 | 1014.0 |
| 20260505224802 | 57 | 50 | 2.0 | 0.0 | 0.00 | 0.00 | 0.00 | 77 | 1014.0 |
| 20260505223302 | 57 | 50 | 2.0 | 0.0 | 0.00 | 0.00 | 0.00 | 77 | 1014.0 |
| 20260505221802 | 57 | 2.0 | 0.0 | 0.00 | 0.00 | 0.00 | 77 | 1014.0 | |
| 20260505220302 | 57 | 2.0 | 0.0 | 0.00 | 0.00 | 0.00 | 77 | 1014.0 | |
| 20260505214803 | 57 | 30 | 2.0 | 0.0 | 0.00 | 0.00 | 0.00 | 77 | 1014.0 |
| 20260505213302 | 57 | 30 | 2.0 | 0.0 | 0.00 | 0.00 | 0.00 | 77 | 1014.0 |
| 20260505211802 | 57 | 0 | 0.0 | 0.0 | 0.00 | 0.00 | 0.00 | 77 | 1014.0 |
| 20260505210302 | 57 | 0 | 0.0 | 0.0 | 0.00 | 0.00 | 0.00 | 77 | 1014.0 |
| 20260505204804 | 59 | 0 | 0.0 | 0.0 | 0.00 | 0.00 | 0.00 | 72 | 1014.0 |
| 20260505203301 | 59 | 0 | 0.0 | 0.0 | 0.00 | 0.00 | 0.00 | 72 | 1014.0 |
| 20260505201833 | 61 | 60 | 3.0 | 0.0 | 0.00 | 0.00 | 0.00 | 68 | 1014.0 |
| 20260505200302 | 61 | 60 | 3.0 | 0.0 | 0.00 | 0.00 | 0.00 | 68 | 1014.0 |
| 20260505194802 | 61 | 80 | 3.0 | 0.0 | 0.00 | 0.00 | 0.00 | 63 | 1014.0 |
| 20260505193302 | 61 | 80 | 3.0 | 0.0 | 0.00 | 0.00 | 0.00 | 63 | 1014.0 |
| 20260505191802 | 61 | 150 | 3.0 | 0.0 | 0.00 | 0.00 | 0.00 | 72 | 1014.0 |
| 20260505190301 | 61 | 150 | 3.0 | 0.0 | 0.00 | 0.00 | 0.00 | 72 | 1014.0 |
| 20260505184802 | 63 | 150 | 5.0 | 0.0 | 0.00 | 0.00 | 0.00 | 68 | 1014.0 |
| 20260505183302 | 63 | 150 | 5.0 | 0.0 | 0.00 | 0.00 | 0.00 | 68 | 1014.0 |
| 20260505181802 | 63 | 140 | 3.0 | 0.0 | 0.00 | 0.00 | 0.00 | 68 | 1013.0 |
| 20260505180302 | 63 | 140 | 3.0 | 0.0 | 0.00 | 0.00 | 0.00 | 68 | 1013.0 |
| 20260505173301 | 64 | 150 | 5.0 | 0.0 | 0.00 | 0.00 | 0.00 | 64 | 1013.0 |
| 20260505171802 | 66 | 210 | 3.0 | 0.0 | 0.00 | 0.00 | 0.00 | 64 | 1013.0 |
| 20260505170302 | 66 | 210 | 3.0 | 0.0 | 0.00 | 0.00 | 0.00 | 64 | 1013.0 |
| 20260505164802 | 68 | 210 | 5.0 | 0.0 | 0.00 | 0.00 | 0.00 | 60 | 1013.0 |
| 20260505163302 | 68 | 210 | 5.0 | 0.0 | 0.00 | 0.00 | 0.00 | 60 | 1013.0 |
| 20260505161802 | 70 | 230 | 3.0 | 0.0 | 0.00 | 0.00 | 0.00 | 53 | 1013.0 |
| 20260505160302 | 70 | 230 | 3.0 | 0.0 | 0.00 | 0.00 | 0.00 | 53 | 1013.0 |
| 20260505153302 | 72 | 1.0 | 0.0 | 0.00 | 0.00 | 0.00 | 53 | 1013.0 | |
| 20260505151810 | 73 | 2.0 | 0.0 | 0.00 | 0.00 | 0.00 | 41 | 1014.0 | |
| 20260505150302 | 73 | 2.0 | 0.0 | 0.00 | 0.00 | 0.00 | 41 | 1014.0 | |
| 20260505140301 | 79 | 240 | 5.0 | 0.0 | 0.00 | 0.00 | 0.00 | 32 | 1014.0 |